CEB371 VMMC-RPLC

Flight info

Callsign CEB371
Flight time 1h 29m
Altitude 37000
Route SKATE V642 NOMAN A461 AVMUP DCT MALIB MALIB5R
Aircraft A339/H-SADE1E2E3GHIJ3J5M1P2RWXY/LB2D1

Departure

Time 2026-04-25 19:45
Airport Macau International Airport (VMMC)

Arrival

Time 2026-04-25 21:15
Airport Clark International Airport / Clark Air Base (RPLC)
Time Latitude Longitude Altitude Speed Heading
2026-04-25 19:22 22.15649 113.57475 35 ft 0 kts 327°
2026-04-25 19:29 22.15644 113.57479 33 ft 1 kts 327°
2026-04-25 19:29 22.15633 113.57486 34 ft 2 kts 327°
2026-04-25 19:29 22.15621 113.57494 33 ft 2 kts 327°
2026-04-25 19:30 22.15613 113.57500 32 ft 2 kts 327°
2026-04-25 19:30 22.15605 113.57506 34 ft 1 kts 327°
2026-04-25 19:30 22.15599 113.57510 33 ft 1 kts 327°
2026-04-25 19:30 22.15593 113.57515 31 ft 1 kts 335°
2026-04-25 19:31 22.15589 113.57519 32 ft 1 kts 349°
2026-04-25 19:31 22.15578 113.57522 33 ft 1 kts 26°
2026-04-25 19:31 22.15572 113.57521 33 ft 0 kts 47°
2026-04-25 19:34 22.15578 113.57528 32 ft 2 kts 47°
2026-04-25 19:34 22.15586 113.57538 33 ft 3 kts 47°
2026-04-25 19:35 22.15578 113.57659 34 ft 7 kts 124°
2026-04-25 19:37 22.15341 113.58043 34 ft 14 kts 123°
2026-04-25 19:37 22.15288 113.58130 34 ft 13 kts 124°
2026-04-25 19:37 22.15234 113.58216 34 ft 14 kts 124°
2026-04-25 19:37 22.15178 113.58306 34 ft 15 kts 123°
2026-04-25 19:38 22.15120 113.58402 34 ft 16 kts 123°
2026-04-25 19:38 22.15063 113.58495 34 ft 13 kts 123°
2026-04-25 19:38 22.15011 113.58579 34 ft 14 kts 123°
2026-04-25 19:38 22.14956 113.58668 34 ft 15 kts 123°
2026-04-25 19:39 22.14908 113.58746 34 ft 13 kts 124°
2026-04-25 19:39 22.14856 113.58827 34 ft 14 kts 124°
2026-04-25 19:39 22.14802 113.58914 34 ft 14 kts 123°
2026-04-25 19:39 22.14748 113.59001 34 ft 14 kts 124°
2026-04-25 19:40 22.14674 113.59056 34 ft 14 kts 161°
2026-04-25 19:40 22.14580 113.59090 34 ft 15 kts 161°
2026-04-25 19:40 22.14480 113.59127 34 ft 15 kts 161°
2026-04-25 19:40 22.14378 113.59165 34 ft 16 kts 160°
2026-04-25 19:41 22.14268 113.59207 34 ft 15 kts 161°
2026-04-25 19:41 22.14169 113.59243 34 ft 15 kts 161°
2026-04-25 19:41 22.14064 113.59281 34 ft 16 kts 161°
2026-04-25 19:41 22.14028 113.59294 34 ft 17 kts 161°
2026-04-25 19:42 22.13872 113.59352 34 ft 15 kts 161°
2026-04-25 19:42 22.13772 113.59389 34 ft 16 kts 161°
2026-04-25 19:42 22.13673 113.59424 34 ft 15 kts 161°
2026-04-25 19:42 22.13577 113.59460 34 ft 14 kts 159°
2026-04-25 19:43 22.13532 113.59510 34 ft 10 kts 124°
2026-04-25 19:43 22.13494 113.59576 34 ft 11 kts 116°
2026-04-25 19:43 22.13508 113.59649 34 ft 10 kts 52°
2026-04-25 19:43 22.13568 113.59651 34 ft 9 kts 349°
2026-04-25 19:44 22.13627 113.59627 34 ft 9 kts 339°
2026-04-25 19:44 22.13695 113.59600 34 ft 12 kts 341°
2026-04-25 19:44 22.13940 113.59511 37 ft 78 kts 342°
2026-04-25 19:44 22.14719 113.59226 33 ft 154 kts 341°
2026-04-25 19:45 22.15885 113.58792 318 ft 187 kts 343°
2026-04-25 19:45 22.17139 113.58330 1011 ft 193 kts 344°
2026-04-25 19:45 22.18453 113.57927 1732 ft 200 kts 350°
2026-04-25 19:45 22.19870 113.57872 2386 ft 208 kts
2026-04-25 19:46 22.21239 113.58364 2970 ft 215 kts 33°
2026-04-25 19:46 22.22453 113.59333 3638 ft 220 kts 40°
2026-04-25 19:46 22.23631 113.60417 4296 ft 225 kts 42°
2026-04-25 19:46 22.24833 113.61521 5037 ft 228 kts 40°
2026-04-25 19:47 22.26023 113.62571 5752 ft 230 kts 39°
2026-04-25 19:47 22.27288 113.63649 6481 ft 233 kts 38°
2026-04-25 19:47 22.28570 113.64718 7154 ft 234 kts 37°
2026-04-25 19:47 22.29904 113.65844 7481 ft 253 kts 38°
2026-04-25 19:48 22.31335 113.67070 7676 ft 271 kts 38°
2026-04-25 19:48 22.32827 113.68362 8119 ft 276 kts 39°
2026-04-25 19:48 22.34066 113.69911 8658 ft 278 kts 58°
2026-04-25 19:48 22.34748 113.71868 9207 ft 281 kts 78°
2026-04-25 19:49 22.35121 113.73992 9508 ft 294 kts 78°
2026-04-25 19:49 22.35250 113.74725 9677 ft 296 kts 78°
2026-04-25 19:49 22.35921 113.78378 10664 ft 300 kts 77°
2026-04-25 19:49 22.36346 113.80595 11184 ft 306 kts 77°
2026-04-25 19:50 22.37057 113.85374 11487 ft 344 kts 91°
2026-04-25 19:50 22.36489 113.87941 11751 ft 359 kts 113°
2026-04-25 19:50 22.35072 113.90175 12256 ft 364 kts 134°
2026-04-25 19:51 22.33031 113.91817 12771 ft 368 kts 149°
2026-04-25 19:51 22.30762 113.93144 13244 ft 373 kts 153°
2026-04-25 19:51 22.28443 113.94434 13744 ft 377 kts 152°
2026-04-25 19:51 22.26117 113.95776 14220 ft 380 kts 151°
2026-04-25 19:52 22.23832 113.97223 14664 ft 383 kts 145°
2026-04-25 19:52 22.21841 113.99131 15148 ft 384 kts 131°
2026-04-25 19:52 22.20273 114.01474 15608 ft 386 kts 119°
2026-04-25 19:52 22.18926 114.04007 16058 ft 390 kts 119°
2026-04-25 19:53 22.17571 114.06516 16493 ft 393 kts 120°
2026-04-25 19:53 22.16168 114.09077 16954 ft 396 kts 120°
2026-04-25 19:53 22.14754 114.11638 17391 ft 400 kts 120°
2026-04-25 19:53 22.13355 114.14253 17819 ft 403 kts 116°
2026-04-25 19:54 22.12082 114.16960 18255 ft 406 kts 116°
2026-04-25 19:54 22.10797 114.19691 18657 ft 409 kts 116°
2026-04-25 19:54 22.09496 114.22444 19051 ft 412 kts 116°
2026-04-25 19:54 22.09060 114.23333 19173 ft 413 kts 118°
2026-04-25 19:55 22.06099 114.27395 19825 ft 418 kts 138°
2026-04-25 19:55 22.03807 114.29333 20230 ft 419 kts 146°
2026-04-25 19:55 22.01418 114.31172 20628 ft 423 kts 146°
2026-04-25 19:55 21.99028 114.33038 21029 ft 426 kts 145°
2026-04-25 19:56 21.96659 114.34901 21457 ft 429 kts 145°
2026-04-25 19:56 21.94216 114.36826 21866 ft 432 kts 145°
2026-04-25 19:56 21.91807 114.38725 22273 ft 435 kts 145°
2026-04-25 19:56 21.89349 114.40661 22673 ft 439 kts 145°
2026-04-25 19:57 21.86928 114.42691 23041 ft 443 kts 138°
2026-04-25 19:57 21.84919 114.45227 23437 ft 448 kts 124°
2026-04-25 19:57 21.83487 114.48222 23803 ft 451 kts 110°
2026-04-25 19:57 21.82588 114.51467 24160 ft 453 kts 103°
2026-04-25 19:58 21.81868 114.54733 24501 ft 456 kts 102°
2026-04-25 19:58 21.81128 114.58084 24861 ft 459 kts 103°
2026-04-25 19:58 21.80340 114.61426 25219 ft 462 kts 104°
2026-04-25 19:58 21.79506 114.64781 25578 ft 465 kts 104°
2026-04-25 19:59 21.78641 114.68157 25935 ft 468 kts 105°
2026-04-25 19:59 21.77774 114.71502 26284 ft 471 kts 105°
2026-04-25 19:59 21.76886 114.74913 26635 ft 474 kts 105°
2026-04-25 19:59 21.75991 114.78351 26987 ft 477 kts 105°
2026-04-25 20:00 21.75028 114.81783 27308 ft 481 kts 110°
2026-04-25 20:00 21.74619 114.82914 27414 ft 482 kts 113°
2026-04-25 20:00 21.71916 114.88110 28002 ft 484 kts 127°
2026-04-25 20:00 21.69858 114.90988 28327 ft 487 kts 130°
2026-04-25 20:01 21.65703 114.96809 29014 ft 493 kts 129°
2026-04-25 20:01 21.63619 114.99749 29351 ft 496 kts 129°
2026-04-25 20:01 21.61523 115.02707 29662 ft 499 kts 129°
2026-04-25 20:02 21.59413 115.05683 29996 ft 502 kts 130°
2026-04-25 20:02 21.57287 115.08677 30295 ft 505 kts 130°
2026-04-25 20:02 21.55148 115.11688 30601 ft 508 kts 130°
2026-04-25 20:02 21.52996 115.14716 30897 ft 511 kts 130°
2026-04-25 20:03 21.51562 115.16732 31085 ft 513 kts 130°
2026-04-25 20:03 21.48685 115.20777 31450 ft 517 kts 130°
2026-04-25 20:03 21.46490 115.23863 31734 ft 520 kts 130°
2026-04-25 20:03 21.44999 115.25957 31929 ft 522 kts 130°
2026-04-25 20:04 21.42790 115.29058 32205 ft 524 kts 130°
2026-04-25 20:04 21.40601 115.32132 32473 ft 527 kts 130°
2026-04-25 20:04 21.38358 115.35277 32705 ft 529 kts 130°
2026-04-25 20:04 21.36113 115.38423 32905 ft 532 kts 130°
2026-04-25 20:05 21.33858 115.41582 33092 ft 534 kts 130°
2026-04-25 20:05 21.31592 115.44755 33269 ft 536 kts 130°
2026-04-25 20:05 21.29348 115.47895 33428 ft 537 kts 130°
2026-04-25 20:05 21.27071 115.51080 33615 ft 538 kts 130°
2026-04-25 20:06 21.24785 115.54275 33804 ft 538 kts 130°
2026-04-25 20:06 21.22510 115.57453 34007 ft 538 kts 130°
2026-04-25 20:06 21.20225 115.60643 34188 ft 538 kts 131°
2026-04-25 20:06 21.17943 115.63828 34382 ft 538 kts 131°
2026-04-25 20:07 21.15661 115.67011 34569 ft 537 kts 131°
2026-04-25 20:07 21.13408 115.70150 34753 ft 537 kts 131°
2026-04-25 20:07 21.11131 115.73323 34940 ft 537 kts 131°
2026-04-25 20:07 21.08853 115.76494 35131 ft 537 kts 131°
2026-04-25 20:08 21.06577 115.79661 35322 ft 536 kts 131°
2026-04-25 20:08 21.04300 115.82827 35497 ft 536 kts 131°
2026-04-25 20:08 21.02021 115.85994 35676 ft 536 kts 132°
2026-04-25 20:08 20.99747 115.89153 35860 ft 536 kts 132°
2026-04-25 20:09 20.97470 115.92316 36031 ft 536 kts 132°
2026-04-25 20:09 20.95192 115.95476 36204 ft 535 kts 132°
2026-04-25 20:09 20.92919 115.98628 36377 ft 535 kts 132°
2026-04-25 20:09 20.90646 116.01779 36546 ft 535 kts 132°
2026-04-25 20:10 20.88398 116.04893 36711 ft 535 kts 133°
2026-04-25 20:10 20.86018 116.07933 36857 ft 530 kts 139°
2026-04-25 20:10 20.80466 116.12959 36953 ft 516 kts 154°
2026-04-25 20:11 20.74406 116.17022 36949 ft 514 kts 155°
2026-04-25 20:11 20.68392 116.21089 36951 ft 514 kts 155°
2026-04-25 20:12 20.62337 116.25191 36950 ft 514 kts 155°
2026-04-25 20:12 20.57299 116.28600 36952 ft 514 kts 155°
2026-04-25 20:13 20.50268 116.33351 36938 ft 514 kts 155°
2026-04-25 20:13 20.44226 116.37429 36945 ft 514 kts 155°
2026-04-25 20:14 20.38169 116.41514 36942 ft 514 kts 155°
2026-04-25 20:14 20.32117 116.45592 36941 ft 514 kts 155°
2026-04-25 20:15 20.26099 116.49642 36945 ft 514 kts 155°
2026-04-25 20:15 20.20051 116.53709 36947 ft 513 kts 155°
2026-04-25 20:16 20.14014 116.57764 36948 ft 512 kts 155°
2026-04-25 20:16 20.07986 116.61811 36946 ft 512 kts 155°
2026-04-25 20:17 20.01996 116.65929 36942 ft 515 kts 151°
2026-04-25 20:17 19.96595 116.71046 36941 ft 526 kts 139°
2026-04-25 20:18 19.91676 116.76822 36941 ft 526 kts 139°
2026-04-25 20:18 19.86772 116.82518 36939 ft 525 kts 139°
2026-04-25 20:19 19.81827 116.88244 36939 ft 525 kts 139°
2026-04-25 20:19 19.76886 116.93961 36939 ft 524 kts 139°
2026-04-25 20:20 19.71952 116.99665 36934 ft 524 kts 139°
2026-04-25 20:20 19.67061 117.05314 36939 ft 523 kts 139°
2026-04-25 20:21 19.62128 117.11006 36939 ft 523 kts 139°
2026-04-25 20:21 19.57201 117.16686 36944 ft 522 kts 139°
2026-04-25 20:22 19.53106 117.21401 36917 ft 522 kts 139°
2026-04-25 20:22 19.47375 117.27996 36940 ft 522 kts 139°
2026-04-25 20:23 19.42444 117.33664 36931 ft 522 kts 139°
2026-04-25 20:23 19.37520 117.39318 36930 ft 522 kts 139°
2026-04-25 20:24 19.32619 117.44940 36930 ft 522 kts 139°
2026-04-25 20:24 19.27679 117.50601 36925 ft 522 kts 139°
2026-04-25 20:25 19.22750 117.56245 36927 ft 521 kts 139°
2026-04-25 20:25 19.17850 117.61850 36927 ft 521 kts 139°
2026-04-25 20:26 19.12919 117.67485 36924 ft 521 kts 139°
2026-04-25 20:26 19.07990 117.73113 36926 ft 520 kts 139°
2026-04-25 20:27 19.03065 117.78730 36934 ft 520 kts 139°
2026-04-25 20:27 18.98174 117.84303 36929 ft 519 kts 139°
2026-04-25 20:28 18.93252 117.89906 36928 ft 519 kts 139°
2026-04-25 20:28 18.88337 117.95497 36929 ft 518 kts 139°
2026-04-25 20:29 18.83430 118.01073 36925 ft 518 kts 139°
2026-04-25 20:29 18.78552 118.06611 36925 ft 517 kts 139°
2026-04-25 20:30 18.73654 118.12167 36927 ft 516 kts 139°
2026-04-25 20:30 18.68748 118.17726 36927 ft 516 kts 139°
2026-04-25 20:31 18.63880 118.23238 36922 ft 515 kts 139°
2026-04-25 20:31 18.58993 118.28766 36921 ft 515 kts 139°
2026-04-25 20:32 18.54099 118.34296 36921 ft 515 kts 139°
2026-04-25 20:32 18.50041 118.38880 36920 ft 514 kts 139°
2026-04-25 20:33 18.44331 118.45322 36922 ft 514 kts 139°
2026-04-25 20:33 18.40268 118.49902 36924 ft 513 kts 139°
2026-04-25 20:34 18.34588 118.56299 36917 ft 513 kts 139°
2026-04-25 20:34 18.29743 118.61751 36919 ft 512 kts 139°
2026-04-25 20:35 18.24876 118.67222 36919 ft 512 kts 139°
2026-04-25 20:35 18.20016 118.72680 36916 ft 511 kts 139°
2026-04-25 20:36 18.15149 118.78143 36919 ft 511 kts 139°
2026-04-25 20:36 18.10280 118.83602 36914 ft 510 kts 139°
2026-04-25 20:37 18.05424 118.89042 36913 ft 510 kts 139°
2026-04-25 20:37 18.00537 118.94366 36914 ft 506 kts 143°
2026-04-25 20:38 17.95009 118.98823 36908 ft 496 kts 154°
2026-04-25 20:38 17.89176 119.02710 36906 ft 496 kts 153°
2026-04-25 20:39 17.83401 119.06605 36907 ft 496 kts 153°
2026-04-25 20:39 17.79500 119.09237 36907 ft 496 kts 153°
2026-04-25 20:40 17.71755 119.14458 36908 ft 497 kts 153°
2026-04-25 20:40 17.65932 119.18376 36910 ft 497 kts 153°
2026-04-25 20:41 17.60152 119.22264 36907 ft 497 kts 153°
2026-04-25 20:41 17.54319 119.26184 36918 ft 497 kts 153°
2026-04-25 20:42 17.48488 119.30101 36918 ft 497 kts 153°
2026-04-25 20:42 17.42694 119.33989 36903 ft 497 kts 153°
2026-04-25 20:43 17.36869 119.37894 36917 ft 497 kts 153°
2026-04-25 20:43 17.31036 119.41802 36902 ft 496 kts 153°
2026-04-25 20:44 17.25213 119.45701 36907 ft 496 kts 153°
2026-04-25 20:44 17.19429 119.49570 36912 ft 496 kts 153°
2026-04-25 20:45 17.13606 119.53463 36908 ft 496 kts 152°
2026-04-25 20:45 17.07789 119.57348 36907 ft 495 kts 152°
2026-04-25 20:46 17.01983 119.61224 36912 ft 495 kts 152°
2026-04-25 20:46 16.96206 119.65076 36912 ft 495 kts 152°
2026-04-25 20:47 16.90408 119.68941 36906 ft 494 kts 152°
2026-04-25 20:47 16.84611 119.72802 36915 ft 494 kts 152°
2026-04-25 20:48 16.78814 119.76659 36912 ft 493 kts 152°
2026-04-25 20:48 16.73053 119.80490 36576 ft 493 kts 152°
2026-04-25 20:49 16.70161 119.82412 36018 ft 493 kts 152°
2026-04-25 20:49 16.68239 119.83688 35489 ft 495 kts 152°
2026-04-25 20:49 16.65314 119.85629 34446 ft 500 kts 152°
2026-04-25 20:49 16.61340 119.88263 32594 ft 509 kts 151°
2026-04-25 20:50 16.58370 119.90232 31108 ft 516 kts 151°
2026-04-25 20:50 16.55329 119.92250 29983 ft 516 kts 151°
2026-04-25 20:50 16.52306 119.94258 28980 ft 512 kts 150°
2026-04-25 20:50 16.50322 119.95576 28498 ft 507 kts 150°
2026-04-25 20:51 16.47377 119.97533 27997 ft 497 kts 150°
2026-04-25 20:51 16.44494 119.99447 27719 ft 483 kts 151°
2026-04-25 20:51 16.41693 120.01305 27327 ft 472 kts 151°
2026-04-25 20:51 16.38925 120.03136 26618 ft 471 kts 151°
2026-04-25 20:52 16.36169 120.04958 25975 ft 467 kts 151°
2026-04-25 20:52 16.34358 120.06155 25547 ft 464 kts 151°
2026-04-25 20:52 16.30708 120.08567 24645 ft 461 kts 151°
2026-04-25 20:52 16.28034 120.10335 24022 ft 458 kts 151°
2026-04-25 20:53 16.25343 120.12114 23353 ft 455 kts 151°
2026-04-25 20:53 16.22671 120.13879 22648 ft 451 kts 150°
2026-04-25 20:53 16.20043 120.15615 22035 ft 445 kts 150°
2026-04-25 20:53 16.17442 120.17333 21385 ft 439 kts 150°
2026-04-25 20:54 16.14869 120.19031 20697 ft 435 kts 150°
2026-04-25 20:54 16.12328 120.20708 20094 ft 429 kts 150°
2026-04-25 20:54 16.09840 120.22349 19458 ft 425 kts 150°
2026-04-25 20:54 16.07356 120.23987 18805 ft 421 kts 150°
2026-04-25 20:55 16.04897 120.25608 18151 ft 416 kts 150°
2026-04-25 20:55 16.02471 120.27206 17513 ft 409 kts 150°
2026-04-25 20:55 16.00080 120.28781 16890 ft 402 kts 150°
2026-04-25 20:55 15.97736 120.30325 16273 ft 395 kts 149°
2026-04-25 20:56 15.95456 120.31825 15642 ft 390 kts 149°
2026-04-25 20:56 15.93182 120.33323 15062 ft 383 kts 149°
2026-04-25 20:56 15.90934 120.34802 14455 ft 378 kts 149°
2026-04-25 20:56 15.88719 120.36259 13854 ft 373 kts 149°
2026-04-25 20:57 15.86540 120.37693 13196 ft 369 kts 149°
2026-04-25 20:57 15.84396 120.39104 12660 ft 360 kts 149°
2026-04-25 20:57 15.82296 120.40486 12115 ft 354 kts 148°
2026-04-25 20:57 15.80234 120.41842 11517 ft 348 kts 148°
2026-04-25 20:58 15.78201 120.43178 11016 ft 341 kts 148°
2026-04-25 20:58 15.76234 120.44470 10443 ft 337 kts 148°
2026-04-25 20:58 15.74277 120.45756 10120 ft 325 kts 148°
2026-04-25 20:58 15.72424 120.46974 9995 ft 306 kts 148°
2026-04-25 20:59 15.70678 120.48122 9967 ft 293 kts 148°
2026-04-25 20:59 15.68884 120.49188 9909 ft 298 kts 156°
2026-04-25 20:59 15.66914 120.49819 9824 ft 295 kts 171°
2026-04-25 20:59 15.64909 120.50065 9720 ft 295 kts 174°
2026-04-25 21:00 15.62864 120.50299 9563 ft 294 kts 174°
2026-04-25 21:00 15.61489 120.50467 9471 ft 294 kts 174°
2026-04-25 21:00 15.56785 120.51073 9142 ft 292 kts 173°
2026-04-25 21:01 15.54769 120.51338 8994 ft 292 kts 173°
2026-04-25 21:01 15.52757 120.51601 8849 ft 291 kts 173°
2026-04-25 21:01 15.50800 120.51858 8728 ft 290 kts 173°
2026-04-25 21:01 15.48743 120.52126 8568 ft 289 kts 173°
2026-04-25 21:02 15.46770 120.52384 8431 ft 290 kts 173°
2026-04-25 21:02 15.44767 120.52646 8285 ft 289 kts 173°
2026-04-25 21:02 15.42779 120.52906 8147 ft 288 kts 173°
2026-04-25 21:02 15.40789 120.53168 8001 ft 288 kts 173°
2026-04-25 21:03 15.38804 120.53428 7864 ft 287 kts 173°
2026-04-25 21:03 15.36825 120.53687 7713 ft 286 kts 173°
2026-04-25 21:03 15.34847 120.53946 7564 ft 286 kts 173°
2026-04-25 21:03 15.32876 120.54204 7438 ft 285 kts 173°
2026-04-25 21:04 15.30911 120.54461 7282 ft 285 kts 173°
2026-04-25 21:04 15.28946 120.54718 7141 ft 284 kts 173°
2026-04-25 21:04 15.26985 120.54975 6998 ft 283 kts 173°
2026-04-25 21:04 15.25030 120.55230 6865 ft 283 kts 173°
2026-04-25 21:05 15.23104 120.55482 6724 ft 282 kts 173°
2026-04-25 21:05 15.21157 120.55736 6568 ft 282 kts 173°
2026-04-25 21:05 15.19224 120.56077 6439 ft 281 kts 164°
2026-04-25 21:05 15.17428 120.56857 6276 ft 280 kts 149°
2026-04-25 21:06 15.15810 120.57982 6157 ft 280 kts 145°
2026-04-25 21:06 15.14201 120.59118 6009 ft 279 kts 146°
2026-04-25 21:06 15.12586 120.60236 5877 ft 278 kts 146°
2026-04-25 21:06 15.11514 120.60971 5779 ft 278 kts 146°
2026-04-25 21:07 15.09373 120.62427 5598 ft 277 kts 146°
2026-04-25 21:07 15.07644 120.63293 5467 ft 278 kts 165°
2026-04-25 21:07 15.05720 120.63370 5326 ft 278 kts 190°
2026-04-25 21:07 15.03877 120.62749 5197 ft 279 kts 202°
2026-04-25 21:08 15.02112 120.61935 5090 ft 273 kts 204°
2026-04-25 21:08 15.00438 120.61150 5007 ft 258 kts 204°
2026-04-25 21:08 14.98879 120.60371 4856 ft 243 kts 213°
2026-04-25 21:08 14.97770 120.59089 4574 ft 236 kts 244°
2026-04-25 21:09 14.97818 120.55961 4137 ft 218 kts 295°
2026-04-25 21:09 14.98477 120.54547 3818 ft 217 kts 298°
2026-04-25 21:09 14.99137 120.53185 3689 ft 205 kts 298°
2026-04-25 21:10 14.99732 120.51858 3523 ft 208 kts 296°
2026-04-25 21:10 15.00403 120.50545 3482 ft 201 kts 311°
2026-04-25 21:10 15.01499 120.49801 3459 ft 190 kts 347°
2026-04-25 21:10 15.02805 120.49853 3396 ft 187 kts 21°
2026-04-25 21:11 15.03960 120.50366 3280 ft 176 kts 26°
2026-04-25 21:11 15.05057 120.50870 3036 ft 167 kts 25°
2026-04-25 21:11 15.06115 120.51330 3020 ft 168 kts 24°
2026-04-25 21:11 15.07203 120.51778 2995 ft 168 kts 23°
2026-04-25 21:12 15.08288 120.52207 2828 ft 164 kts 22°
2026-04-25 21:12 15.09322 120.52609 2556 ft 158 kts 22°
2026-04-25 21:12 15.10336 120.53001 2280 ft 149 kts 22°
2026-04-25 21:12 15.10988 120.53255 2109 ft 154 kts 22°
2026-04-25 21:13 15.12292 120.53762 1771 ft 148 kts 22°
2026-04-25 21:13 15.13271 120.54151 1554 ft 149 kts 22°
2026-04-25 21:13 15.14240 120.54535 1335 ft 150 kts 21°
2026-04-25 21:13 15.15206 120.54923 1096 ft 150 kts 20°
2026-04-25 21:14 15.16179 120.55298 791 ft 146 kts 18°
2026-04-25 21:14 15.17149 120.55657 601 ft 151 kts 18°
2026-04-25 21:14 15.18106 120.56042 440 ft 139 kts 21°
2026-04-25 21:14 15.18819 120.56327 429 ft 81 kts 21°
2026-04-25 21:15 15.19080 120.56428 429 ft 16 kts
2026-04-25 21:15 15.19138 120.56356 437 ft 14 kts 293°
2026-04-25 21:15 15.19172 120.56263 429 ft 14 kts 290°
2026-04-25 21:15 15.19227 120.56198 436 ft 10 kts 358°
2026-04-25 21:16 15.19297 120.56219 439 ft 11 kts 19°
2026-04-25 21:16 15.19373 120.56250 434 ft 10 kts 22°
2026-04-25 21:16 15.19425 120.56243 434 ft 7 kts 306°
2026-04-25 21:16 15.19447 120.56195 429 ft 7 kts 294°
2026-04-25 21:17 15.19485 120.56193 430 ft 5 kts 24°
2026-04-25 21:17 15.19513 120.56208 434 ft 4 kts 25°
2026-04-25 21:17 15.19527 120.56213 437 ft 2 kts 21°
2026-04-25 21:17 15.19537 120.56217 428 ft 0 kts 21°